Bartow, Florida, United States (33830)
Lat: 27.90N, Lon: 81.84W
Wx Zone: FLZ052
Local Info
Past Weather Observations for Friday, February 27, 2015

NOTE: This archive is for the closest National Weather Service station to Bartow. Information may differ from the station used for current weather conditions.

Click here for Long-term Archive

Time Weather Temperature Dewpoint Humidity Pressure Winds Precip Visibility
23:55
Overcast
54°F / 12°C 52°F / 11°C 94% 30.27 in
(1025 mb)
NE 10.4 mph
(NE 17 kph)
- 10SM
23:35
Overcast
55°F / 13°C 52°F / 11°C 88% 30.27 in
(1025 mb)
NNE 9.2 mph
(NNE 15 kph)
- 10SM
23:15
Overcast
55°F / 13°C 52°F / 11°C 88% 30.27 in
(1025 mb)
NNE 12.7 mph
(NNE 20 kph)
- 10SM
22:55
Overcast
55°F / 13°C 52°F / 11°C 88% 30.27 in
(1025 mb)
N 12.7 mph
(N 20 kph)
- 10SM
22:35
Overcast
55°F / 13°C 52°F / 11°C 88% 30.27 in
(1025 mb)
NE 9.2 mph
(NE 15 kph)
- 10SM
22:15
Overcast
55°F / 13°C 52°F / 11°C 88% 30.27 in
(1025 mb)
NE 12.7 mph
(NE 20 kph)
- 10SM
21:55
Overcast
55°F / 13°C 50°F / 10°C 82% 30.24 in
(1024 mb)
NE 9.2 mph
(NE 15 kph)
- 10SM
21:35
Overcast
55°F / 13°C 50°F / 10°C 82% 30.24 in
(1024 mb)
NE 9.2 mph
(NE 15 kph)
- 10SM
21:15
Overcast
55°F / 13°C 48°F / 9°C 77% 30.24 in
(1024 mb)
NE 10.4 mph
(NE 17 kph)
- 10SM
20:55
Overcast
55°F / 13°C 48°F / 9°C 77% 30.24 in
(1024 mb)
NE 12.7 mph
(NE 20 kph)
- 10SM
20:35
Overcast
55°F / 13°C 48°F / 9°C 77% 30.24 in
(1024 mb)
NE 11.5 mph
(NE 19 kph)
- 10SM
20:15
Overcast
55°F / 13°C 48°F / 9°C 77% 30.24 in
(1024 mb)
NE 11.5 mph
(NE 19 kph)
- 10SM
19:55
Overcast
55°F / 13°C 48°F / 9°C 77% 30.24 in
(1024 mb)
NE 10.4 mph
(NE 17 kph)
- 10SM
19:35
Overcast
55°F / 13°C 48°F / 9°C 77% 30.24 in
(1024 mb)
NE 12.7 mph
(NE 20 kph)
- 10SM
19:15
Overcast
55°F / 13°C 48°F / 9°C 77% 30.24 in
(1024 mb)
NE 8.1 mph
(NE 13 kph)
- 10SM
18:55
Overcast
55°F / 13°C 48°F / 9°C 77% 30.21 in
(1023 mb)
NE 11.5 mph
(NE 19 kph)
- 10SM
18:35
Overcast
55°F / 13°C 48°F / 9°C 77% 30.24 in
(1024 mb)
NE 12.7 mph
(NE 20 kph)
- 10SM
18:15
Overcast
55°F / 13°C 48°F / 9°C 77% 30.21 in
(1023 mb)
NE 10.4 mph
(NE 17 kph)
- 10SM
17:55
Overcast
55°F / 13°C 48°F / 9°C 77% 30.21 in
(1023 mb)
NE 10.4 mph
(NE 17 kph)
- 10SM
17:35
Overcast
55°F / 13°C 48°F / 9°C 77% 30.21 in
(1023 mb)
NE 10.4 mph
(NE 17 kph)
- 10SM
16:47
Overcast
55°F / 13°C 46°F / 8°C 72% 30.21 in
(1023 mb)
NE 10.4 mph
(NE 17 kph)
- 10SM
15:50
Overcast
57°F / 14°C 46°F / 8°C 67% 30.21 in
(1023 mb)
NE 13.8 mph
(NE 22 kph)
- 10SM
14:50
Overcast
55°F / 13°C 46°F / 8°C 72% 30.21 in
(1023 mb)
NNE 17.3 mph
(NNE 28 kph)
- 10SM
13:47
Overcast
55°F / 13°C 46°F / 8°C 72% 30.21 in
(1023 mb)
NE 11.5 mph
(NE 19 kph)
- 10SM
12:47
Overcast
55°F / 13°C 46°F / 8°C 72% 30.24 in
(1024 mb)
NNE 11.5 mph
(NNE 19 kph)
- 10SM
11:47
Overcast
55°F / 13°C 46°F / 8°C 72% 30.24 in
(1024 mb)
N 11.5 mph
(N 19 kph)
- 10SM
10:55
Overcast
54°F / 12°C 46°F / 8°C 77% 30.24 in
(1024 mb)
N 11.5 mph
(N 19 kph)
- 10SM
09:55
Overcast
54°F / 12°C 46°F / 8°C 77% 30.24 in
(1024 mb)
N 11.5 mph
(N 19 kph)
- 10SM
08:50
Overcast
54°F / 12°C 46°F / 8°C 77% 30.21 in
(1023 mb)
N 11.5 mph
(N 19 kph)
- 10SM
07:47
Overcast
54°F / 12°C 46°F / 8°C 77% 30.18 in
(1022 mb)
N 11.5 mph
(N 19 kph)
- 10SM
07:15
Overcast
54°F / 12°C 46°F / 8°C 77% 30.15 in
(1021 mb)
NNE 11.5 mph
(NNE 19 kph)
- 10SM
06:55
Overcast
54°F / 12°C 46°F / 8°C 77% 30.15 in
(1021 mb)
N 8.1 mph
(N 13 kph)
- 10SM
06:35
Overcast
54°F / 12°C 46°F / 8°C 77% 30.15 in
(1021 mb)
N 11.5 mph
(N 19 kph)
- 10SM
06:15
Overcast
54°F / 12°C 46°F / 8°C 77% 30.15 in
(1021 mb)
N 8.1 mph
(N 13 kph)
- 10SM
05:55
Overcast
54°F / 12°C 46°F / 8°C 77% 30.12 in
(1020 mb)
N 8.1 mph
(N 13 kph)
- 10SM
05:35
Overcast
54°F / 12°C 48°F / 9°C 82% 30.12 in
(1020 mb)
NNE 12.7 mph
(NNE 20 kph)
- 10SM
05:15
Overcast
54°F / 12°C 48°F / 9°C 82% 30.09 in
(1019 mb)
NE 8.1 mph
(NE 13 kph)
- 10SM
04:55
Overcast
55°F / 13°C 48°F / 9°C 77% 30.09 in
(1019 mb)
NNE 10.4 mph
(NNE 17 kph)
- 10SM
04:35
Overcast
55°F / 13°C 48°F / 9°C 77% 30.09 in
(1019 mb)
NE 11.5 mph
(NE 19 kph)
- 10SM
04:15
Overcast
55°F / 13°C 48°F / 9°C 77% 30.09 in
(1019 mb)
NE 8.1 mph
(NE 13 kph)
- 10SM
03:55
Overcast
55°F / 13°C 48°F / 9°C 77% 30.09 in
(1019 mb)
NE 6.9 mph
(NE 11 kph)
- 10SM
03:35
Overcast
55°F / 13°C 48°F / 9°C 77% 30.09 in
(1019 mb)
NE 8.1 mph
(NE 13 kph)
- 10SM
03:15
Overcast
55°F / 13°C 48°F / 9°C 77% 30.06 in
(1018 mb)
NE 11.5 mph
(NE 19 kph)
- 10SM
02:55
Overcast
55°F / 13°C 48°F / 9°C 77% 30.06 in
(1018 mb)
NE 10.4 mph
(NE 17 kph)
- 10SM
02:35
Overcast
55°F / 13°C 48°F / 9°C 77% 30.06 in
(1018 mb)
NE 8.1 mph
(NE 13 kph)
- 10SM
02:15
Overcast
55°F / 13°C 50°F / 10°C 82% 30.06 in
(1018 mb)
NE 6.9 mph
(NE 11 kph)
- 10SM
01:55
Overcast
55°F / 13°C 52°F / 11°C 88% 30.06 in
(1018 mb)
NNE 9.2 mph
(NNE 15 kph)
- 10SM
01:35
Overcast
55°F / 13°C 52°F / 11°C 88% 30.06 in
(1018 mb)
N 5.8 mph
(N 9 kph)
- 10SM
01:15
Overcast
55°F / 13°C 50°F / 10°C 82% 30.06 in
(1018 mb)
N 3.5 mph
(N 6 kph)
- 10SM
00:55
Overcast
55°F / 13°C 50°F / 10°C 82% 30.06 in
(1018 mb)
N 5.8 mph
(N 9 kph)
- 10SM
00:35
Overcast
55°F / 13°C 50°F / 10°C 82% 30.06 in
(1018 mb)
NW 6.9 mph
(NW 11 kph)
- 10SM
00:15
Overcast
55°F / 13°C 48°F / 9°C 77% 30.09 in
(1019 mb)
NNW 4.6 mph
(NNW 7 kph)
- 10SM
Time Weather Temperature Dewpoint Humidity Pressure Winds Precip Visibility


Weather for websites

WeatherForYou.com, LLC is not responsible for any damages or problems caused by this service. Current weather conditions are obtained from the closest station including government and personal stations which may have varying degrees of accuracy. Weather forecasts are derived from the NOAA NDFD. Like all things, this site belongs to Jesus Christ... He just trusts me to maintain it. If you have any questions or comments email webmaster@weatherforyou.com

Copyright © 2015, WeatherForYou.com LLC. All rights reserved.